Regional Weather Roundup
Issued by NWS

Home | Current Version | Previous Version | Graphics & Text | Print | Product List | Glossary On
Versions: 1 2 3 4 5 6 7 8 9 10 11 12 13 14 15 16 17 18 19 20 21 22 23 24 25 26 27 28 29 30 31 32 33 34 35 36 37 38 39 40 41 42 43 44 45 46 47 48 49 50
000
ASUS43 KLOT 240106
RWRIL

ILLINOIS REGIONAL WEATHER ROUNDUP
NATIONAL WEATHER SERVICE CHICAGO/ROMEOVILLE IL
800 PM CDT THU OCT 23 2014

NOTE: "FAIR" INDICATES FEW OR NO CLOUDS BELOW 12,000 FEET WITH NO
SIGNIFICANT WEATHER AND/OR OBSTRUCTIONS TO VISIBILITY.

* THESE STATIONS ARE NOT UNDER NWS QUALITY CONTROL. THEY ALSO MAY NOT
  REPORT WEATHER SUCH AS PRECIPITATION OR FOG.

ILZ001-002-007-009-015-016-024-240200-
NORTHWEST ILLINOIS

CITY           SKY/WX    TMP DP  RH WIND       PRES   REMARKS
MOLINE         CLOUDY    57  47  69 CALM      30.05R
STERLING*      CLOUDY    54  46  76 CALM      30.06S
SAVANNA*       CLOUDY    54  51  89 CALM      30.05S
$$

ILZ003-004-008-010-011-017-018-240200-
NORTH CENTRAL ILLINOIS

CITY           SKY/WX    TMP DP  RH WIND       PRES   REMARKS
ROCKFORD       CLOUDY    51  48  89 S6        30.09S
FREEPORT*      CLOUDY    51  48  91 S6        30.07S
ROCHELLE*      RAIN      52  47  83 CALM      30.08S
DE KALB*       CLOUDY    52  43  71 CALM      30.08S
PERU*          CLOUDY    57  44  61 S6        30.08R
$$

ILZ005-006-012>014-019>023-240200-
NORTHEAST ILLINOIS

CITY           SKY/WX    TMP DP  RH WIND       PRES   REMARKS
CHICAGO-OHARE  CLOUDY    55  42  61 S5        30.07R
CHICAGO-MIDWAY CLOUDY    58  41  53 S8        30.08R
AURORA         CLOUDY    55  43  63 CALM      30.09R
LANSING*       CLOUDY    51  41  69 S5        30.10R
JOLIET*        CLOUDY    55  43  63 CALM      30.09R
WAUKEGAN       CLOUDY    53  44  71 CALM      30.07S
DUPAGE AIRPORT CLOUDY    54  43  66 CALM      30.08R
KANKAKEE*      MOCLDY    50  42  73 SE6       30.10S
WHEELING       CLOUDY    57  42  57 S6        30.09R
MORRIS*        CLOUDY    55  44  67 S3        30.07R
ROMEOVILLE*    CLOUDY    54  42  65 S5        30.08S HAZE
NORTHERLY ISL    N/A     56  40  55 S8          N/A
$$

LMZ740>746-240200-
SOUTHERN LAKE MICHIGAN

STATION/POSITION SKY/WX   TEMP    WIND        PRES    VSBY  WAVE
                          AIR SEA DIR/SP/G                  HT/PER
                          (F)     (DEG/KT/KT) (MB)    (MI)  (FT/S)
SOUTHERN BUOY              55 54  170/ 12/ 14 1018.7R         2/ 4
WAUKEGAN HARBOR            56     190/  6/  6   N/A
HARRISON CRIB              56     180/  7/  8   N/A
BURNHAM HARBOR             57     190/  7/  8   N/A
CALUMET HARBOR             56     160/  5/  7 1017.5S
MICHIGAN CITY              54     150/  6/  8   N/A
$$

ILZ025>027-034>036-040-047-049-050-058-095>099-240200-
WEST-CENTRAL ILLINOIS

CITY           SKY/WX    TMP DP  RH WIND       PRES   REMARKS
QUINCY         PTCLDY    55  51  86 S9        30.06S
GALESBURG*     MOCLDY    54  47  79 S5        30.06R
MACOMB*        CLOUDY    56  50  82 S5        30.09R
JACKSONVILLE*  CLOUDY    60  47  60 S7        30.09R
PITTSFIELD*    CLOUDY    57  52  83 S3        30.09S
$$

ILZ028>032-037-038-041>044-048-051>054-059>061-240200-
CENTRAL ILLINOIS

CITY           SKY/WX    TMP DP  RH WIND       PRES   REMARKS
PONTIAC        CLOUDY    55  45  69 S5        30.09S
BLOOMINGTON    CLOUDY    54  44  68 SW7       30.11R
DECATUR        PTCLDY    54  43  66 S9        30.10S
PEORIA         CLOUDY    57  45  64 S8        30.08R
LACON*         CLOUDY    56  43  62 S3        30.06S
LINCOLN*       CLOUDY    56  44  63 S5        30.08R
SPRINGFIELD    CLOUDY    58  44  60 S5        30.10R
TAYLORVILLE    PTCLDY    52  43  71 S7        30.10S
$$

ILZ033-039-045-046-055>057-062-063-240200-
EAST-CENTRAL ILLINOIS

CITY           SKY/WX    TMP DP  RH WIND       PRES   REMARKS
CHAMPAIGN      PTCLDY    50  41  71 SE7       30.10F
DANVILLE*      CLOUDY    51  41  70 SE5       30.09S
RANTOUL*       PTCLDY    49  42  76 S5        30.10S
MATTOON        MOCLDY    51  43  74 S6        30.11S
PARIS*         CLOUDY    50  44  78 CALM      30.13R
$$

ILZ079-100>102-240200-
SOUTHWEST ILLINOIS

CITY           SKY/WX    TMP DP  RH WIND       PRES   REMARKS
ALTON          MOCLDY    55  43  62 SE5       30.11R
BELLEVILLE     CLOUDY    56  47  70 E3        30.10F
CAHOKIA*       MOCLDY    58  45  62 S6        30.11S
SPARTA*        CLOUDY    55  46  72 S5        30.13F
$$

ILZ064>066-069>071-074>076-080>082-084>086-088>090-092>094-240200-
SOUTH-CENTRAL ILLINOIS

CITY           SKY/WX    TMP DP  RH WIND       PRES   REMARKS
CARBONDALE     PTCLDY    49  43  80 S5        30.14S
CAIRO*         MOCLDY    50  45  81 NW5       30.15S
EFFINGHAM*     MOCLDY    52  40  64 S5        30.13R
MARION         MOCLDY    54  46  76 CALM      30.15R
MT. VERNON     CLOUDY    48  43  81 CALM      30.14S
CENTRALIA*     PTCLDY    51  43  76 S5        30.13S
SALEM*         PTCLDY    54  47  75 S3        30.13S
METROPOLIS*    CLOUDY    51  49  92 CALM      30.13S
$$

ILZ067-068-072-073-078-083-087-091-240200-
SOUTHEAST ILLINOIS

CITY           SKY/WX    TMP DP  RH WIND       PRES   REMARKS
LAWRENCEVILLE  CLOUDY    51  45  79 S3        30.13S
FLORA*         CLOUDY    51  44  78 SW3       30.14R
FAIRFIELD*     CLOUDY    50  45  83 CALM      30.13S
HARRISBURG*    CLOUDY    49  46  92 CALM      30.15S
ROBINSON*      CLOUDY    51  45  80 CALM      30.14S
CARMI*         CLOUDY    49  46  88 CALM      30.13S
$$

ABBREVIATIONS USED IN REMARKS
   TC - TEMPERATURE IN CELSIUS
  WCI - WIND CHILL INDEX
   HX - HEAT INDEX
  VSB - VISIBILITY
$$




USA.gov is the U.S. government's official web portal to all federal, state and local government web resources and services.